When you browse on this site, cookies collect data to enhance your experience and personalize the content and advertising you see.
Visit our Privacy Policy to learn more. By continuing to use the site, you agree to this use of cookies and data.
  • In Slovakia
  • List of Countries
  • For 7 days
  • Water Temperature
  • Weather Map
  • Weather Widgets
  • user-avatar
    Login

    Hourly Weather Baraki Barak

    Today, 20 October, Sunday

    Time Temperature Precipitation Wind Pressure Humidity
    00:00 +10°C° 0 mm 0 mps 600 mmHg 45%
    01:00 +10°C° 0 mm 0 mps 600 mmHg 47%
    02:00 +9°C° 0 mm 0 mps 600 mmHg 50%
    03:00 +9°C° 0 mm 0 mps 599 mmHg 51%
    04:00 +9°C° 0 mm 0 mps 599 mmHg 53%
    05:00 +8°C° 0 mm 0 mps 599 mmHg 54%
    06:00 +9°C° 0 mm 0 mps 600 mmHg 50%
    07:00 +10°C° 0 mm 0 mps 601 mmHg 46%
    08:00 +12°C° 0 mm 0 mps 601 mmHg 41%
    09:00 +13°C° 0 mm 0 mps 602 mmHg 38%
    10:00 +14°C° 0 mm 0 mps 602 mmHg 35%
    11:00 +16°C° 0 mm 1 mps 602 mmHg 32%
    12:00 +18°C° 0 mm 1 mps 602 mmHg 29%
    13:00 +19°C° 0 mm 1 mps 602 mmHg 26%
    14:00 +19°C° 0 mm 1 mps 601 mmHg 23%
    15:00 +19°C° 0 mm 1 mps 601 mmHg 22%
    16:00 +19°C° 0 mm 1 mps 601 mmHg 21%
    17:00 +18°C° 0 mm 2 mps 601 mmHg 20%
    18:00 +18°C° 0 mm 1 mps 601 mmHg 24%
    19:00 +16°C° 0 mm 1 mps 601 mmHg 27%
    20:00 +14°C° 0 mm 1 mps 601 mmHg 31%
    21:00 +14°C° 0 mm 1 mps 600 mmHg 33%
    22:00 +13°C° 0 mm 1 mps 600 mmHg 36%
    23:00 +11°C° 0 mm 0 mps 599 mmHg 38%

    Tomorrow, 21 October, Monday

    Time Temperature Precipitation Wind Pressure Humidity
    00:00 +11°C° 0 mm 0 mps 599 mmHg 40%
    01:00 +10°C° 0 mm 0 mps 599 mmHg 41%
    02:00 +10°C° 0 mm 0 mps 599 mmHg 42%
    03:00 +9°C° 0 mm 0 mps 598 mmHg 42%
    04:00 +9°C° 0 mm 0 mps 598 mmHg 42%
    05:00 +8°C° 0 mm 0 mps 598 mmHg 42%
    06:00 +11°C° 0 mm 1 mps 599 mmHg 38%
    07:00 +12°C° 0 mm 1 mps 600 mmHg 34%
    08:00 +13°C° 0 mm 1 mps 600 mmHg 30%
    09:00 +15°C° 0 mm 1 mps 601 mmHg 26%
    10:00 +16°C° 0 mm 1 mps 601 mmHg 23%
    11:00 +16°C° 0 mm 0 mps 601 mmHg 20%
    12:00 +19°C° 0 mm 1 mps 601 mmHg 18%
    13:00 +20°C° 0 mm 1 mps 601 mmHg 16%
    14:00 +20°C° 0 mm 2 mps 601 mmHg 13%
    15:00 +20°C° 0 mm 2 mps 600 mmHg 14%
    16:00 +19°C° 0 mm 2 mps 600 mmHg 14%
    17:00 +19°C° 0 mm 2 mps 600 mmHg 14%
    18:00 +18°C° 0 mm 2 mps 600 mmHg 18%
    19:00 +16°C° 0 mm 1 mps 599 mmHg 22%
    20:00 +15°C° 0 mm 1 mps 599 mmHg 27%
    21:00 +14°C° 0 mm 1 mps 599 mmHg 31%
    22:00 +13°C° 0 mm 1 mps 598 mmHg 35%
    23:00 +12°C° 0 mm 1 mps 598 mmHg 38%

    Day after tomorrow, 22 October, Tuesday

    Time Temperature Precipitation Wind Pressure Humidity
    00:00 +12°C° 0 mm 1 mps 598 mmHg 41%
    01:00 +11°C° 0 mm 1 mps 597 mmHg 43%
    02:00 +9°C° 0 mm 0 mps 597 mmHg 45%
    03:00 +9°C° 0 mm 0 mps 597 mmHg 45%
    04:00 +8°C° 0 mm 0 mps 596 mmHg 45%
    05:00 +8°C° 0 mm 0 mps 596 mmHg 46%
    06:00 +9°C° 0 mm 0 mps 597 mmHg 42%
    07:00 +10°C° 0 mm 0 mps 598 mmHg 38%
    08:00 +12°C° 0 mm 0 mps 599 mmHg 34%
    09:00 +13°C° 0 mm 0 mps 599 mmHg 32%
    10:00 +15°C° 0 mm 1 mps 599 mmHg 29%
    11:00 +16°C° 0 mm 1 mps 599 mmHg 27%
    12:00 +16°C° 0 mm 1 mps 599 mmHg 25%
    13:00 +18°C° 0 mm 1 mps 599 mmHg 23%
    14:00 +19°C° 0 mm 1 mps 599 mmHg 21%
    15:00 +18°C° 0 mm 1 mps 598 mmHg 22%
    16:00 +17°C° 0 mm 2 mps 598 mmHg 23%
    17:00 +17°C° 0 mm 2 mps 598 mmHg 24%
    18:00 +16°C° 0 mm 2 mps 598 mmHg 29%
    19:00 +15°C° 0 mm 2 mps 598 mmHg 34%
    20:00 +14°C° 0 mm 2 mps 598 mmHg 39%
    21:00 +13°C° 0 mm 2 mps 598 mmHg 44%
    22:00 +12°C° 0 mm 1 mps 597 mmHg 49%
    23:00 +10°C° 0 mm 0 mps 597 mmHg 54%

    23 October, Wednesday

    Time Temperature Precipitation Wind Pressure Humidity
    00:00 +9°C° 0 mm 0 mps 596 mmHg 56%
    01:00 +9°C° 0 mm 0 mps 596 mmHg 58%
    02:00 +8°C° 0 mm 0 mps 596 mmHg 60%
    03:00 +8°C° 0 mm 0 mps 596 mmHg 61%
    04:00 +7°C° 0 mm 0 mps 595 mmHg 62%
    05:00 +7°C° 0 mm 0 mps 595 mmHg 62%
    06:00 +8°C° 0 mm 0 mps 596 mmHg 57%
    07:00 +9°C° 0 mm 0 mps 597 mmHg 52%
    08:00 +11°C° 0 mm 1 mps 597 mmHg 47%
    09:00 +12°C° 0 mm 1 mps 598 mmHg 43%
    10:00 +13°C° 0 mm 1 mps 598 mmHg 38%
    11:00 +14°C° 0 mm 1 mps 598 mmHg 33%
    12:00 +15°C° 0 mm 1 mps 598 mmHg 29%
    13:00 +16°C° 0 mm 1 mps 598 mmHg 25%
    14:00 +18°C° 0 mm 1 mps 598 mmHg 21%
    15:00 +17°C° 0 mm 2 mps 598 mmHg 20%
    16:00 +17°C° 0 mm 2 mps 598 mmHg 19%
    17:00 +17°C° 0 mm 2 mps 598 mmHg 18%
    18:00 +15°C° 0 mm 2 mps 597 mmHg 21%
    19:00 +14°C° 0 mm 1 mps 597 mmHg 24%
    20:00 +13°C° 0 mm 1 mps 597 mmHg 26%
    21:00 +11°C° 0 mm 0 mps 597 mmHg 28%
    22:00 +10°C° 0 mm 0 mps 597 mmHg 30%
    23:00 +10°C° 0 mm 0 mps 597 mmHg 32%

    24 October, Thursday

    Time Temperature Precipitation Wind Pressure Humidity
    00:00 +9°C° 0 mm 0 mps 596 mmHg 34%
    01:00 +9°C° 0 mm 0 mps 596 mmHg 36%
    02:00 +8°C° 0 mm 0 mps 596 mmHg 38%
    03:00 +8°C° 0 mm 0 mps 596 mmHg 39%
    04:00 +7°C° 0 mm 0 mps 595 mmHg 40%
    05:00 +7°C° 0 mm 0 mps 595 mmHg 41%
    06:00 +8°C° 0 mm 0 mps 596 mmHg 38%
    07:00 +10°C° 0 mm 0 mps 597 mmHg 35%
    08:00 +11°C° 0 mm 0 mps 598 mmHg 31%
    09:00 +12°C° 0 mm 0 mps 598 mmHg 28%
    10:00 +14°C° 0 mm 1 mps 599 mmHg 25%
    11:00 +16°C° 0 mm 1 mps 599 mmHg 22%
    12:00 +18°C° 0 mm 1 mps 599 mmHg 20%
    13:00 +17°C° 0 mm 2 mps 599 mmHg 19%
    14:00 +18°C° 0 mm 2 mps 599 mmHg 17%
    15:00 +18°C° 0 mm 2 mps 598 mmHg 17%
    16:00 +18°C° 0 mm 2 mps 598 mmHg 17%
    17:00 +18°C° 0 mm 3 mps 598 mmHg 17%
    18:00 +16°C° 0 mm 2 mps 598 mmHg 20%
    19:00 +15°C° 0 mm 2 mps 598 mmHg 23%
    20:00 +13°C° 0 mm 1 mps 597 mmHg 27%
    21:00 +12°C° 0 mm 1 mps 597 mmHg 30%
    22:00 +12°C° 0 mm 1 mps 597 mmHg 33%
    23:00 +11°C° 0 mm 1 mps 597 mmHg 36%

    25 October, Friday

    Time Temperature Precipitation Wind Pressure Humidity
    00:00 +11°C° 0 mm 1 mps 597 mmHg 39%
    01:00 +10°C° 0 mm 1 mps 596 mmHg 42%
    02:00 +9°C° 0 mm 0 mps 596 mmHg 44%
    03:00 +8°C° 0 mm 0 mps 596 mmHg 46%
    04:00 +8°C° 0 mm 0 mps 596 mmHg 48%
    05:00 +8°C° 0 mm 0 mps 595 mmHg 49%
    06:00 +9°C° 0 mm 0 mps 596 mmHg 46%
    07:00 +10°C° 0 mm 0 mps 597 mmHg 43%
    08:00 +11°C° 0 mm 0 mps 598 mmHg 40%
    09:00 +13°C° 0 mm 1 mps 598 mmHg 36%
    10:00 +14°C° 0 mm 1 mps 599 mmHg 33%
    11:00 +16°C° 0 mm 1 mps 599 mmHg 30%
    12:00 +16°C° 0 mm 1 mps 599 mmHg 27%
    13:00 +17°C° 0 mm 2 mps 599 mmHg 24%
    14:00 +18°C° 0 mm 2 mps 599 mmHg 21%
    15:00 +18°C° 0 mm 3 mps 598 mmHg 20%
    16:00 +18°C° 0 mm 3 mps 598 mmHg 18%
    17:00 +18°C° 0 mm 4 mps 598 mmHg 17%
    18:00 +16°C° 0 mm 3 mps 598 mmHg 19%
    19:00 +14°C° 0 mm 3 mps 598 mmHg 22%
    20:00 +14°C° 0 mm 2 mps 598 mmHg 25%
    21:00 +13°C° 0 mm 2 mps 598 mmHg 29%
    22:00 +12°C° 0 mm 2 mps 598 mmHg 33%
    23:00 +12°C° 0 mm 2 mps 598 mmHg 38%
    Show more